CAPE
0 0 0 0 0 0 0 0 0 0 0 0 0 0 0 0 0 0 0 0 0 9 6 7 15 0 0 0 0 4 5 225 304 253 189 171 606 999 1094 1038 1322 1496 1747 1630
0 0 0 0 0 0 0 0 0 0 0 0 0 0 0 0 0 0 0 0 0 0 10 1 0 0 0 0 0 10 132 214 827 425 322 374 742 950 1243 1243 1594 1697 1719 1663
0 0 0 0 0 0 0 0 0 0 0 0 0 0 0 0 0 0 0 0 0 0 0 0 0 0 0 0 0 0 82 179 396 534 471 1098 1435 1437 1488 1500 1751 1788 1714 1754
0 0 0 0 0 0 0 0 0 0 0 0 0 0 0 0 0 0 0 0 0 0 0 0 0 0 0 0 0 0 1 78 294 1046 271 1267 1204 1435 1349 1517 1676 1788 1713 1753
0 18 26 46 3 1 0 0 0 0 0 0 0 0 0 0 0 0 0 0 0 0 0 0 0 0 0 0 0 0 0 6 211 1053 409 1100 1413 1148 1349 1437 2017 1911 1860 1780
13 38 42 55 33 2 8 1 1 0 0 1 0 0 0 0 0 0 0 0 0 0 0 0 0 0 0 0 0 0 0 0 328 1053 1054 1444 1384 1631 1527 1818 2040 1901 1689 1728
8 25 29 9 56 82 10 24 17 24 22 0 0 1 0 0 0 0 0 0 0 0 0 0 0 0 0 0 0 0 0 0 518 1378 1452 1551 1703 2063 2253 2303 1955 1882 1809 1846
18 6 63 29 55 113 74 55 29 12 16 35 18 9 1 0 0 1 0 0 0 0 0 0 0 0 0 0 0 0 0 136 1223 1448 1625 1787 2195 1992 2171 2227 1992 1754 1595 1441
27 33 4 12 112 48 83 41 86 70 1 0 0 9 22 1 0 0 0 0 0 0 0 0 2 7 1 0 0 0 160 811 1453 1700 1932 2171 2263 2234 2041 1980 1763 1262 1062 1142
36 9 37 102 66 0 46 83 31 84 0 0 13 6 6 3 2 3 0 0 0 0 0 0 32 410 289 0 0 27 500 1249 1607 1868 2071 2164 1965 1697 1702 1641 1295 958 827 764
21 16 29 52 85 156 180 129 88 18 19 14 0 34 2 9 0 9 12 0 0 0 0 1 486 504 452 166 294 558 1129 1557 1754 1820 1836 1805 1633 1640 1464 1099 1054 923 788 588
27 48 13 22 14 54 13 89 143 92 5 69 4 0 0 9 20 0 8 0 0 0 0 0 580 503 727 802 1142 1525 1587 1637 1743 1790 1713 1419 1211 1048 1022 903 711 674 581 470
10 23 57 7 37 9 1 25 66 22 47 2 4 0 0 86 65 30 3 2 0 0 0 0 449 664 1221 1224 1450 1641 1647 1652 1611 1335 1152 1039 932 875 702 534 469 397 320 292
14 10 11 16 26 0 0 21 25 48 46 4 1 0 0 0 25 0 0 1 1 0 0 0 8 914 1330 1305 1444 1457 1549 1447 1207 1027 909 859 690 499 334 313 329 372 350 322
7 3 16 32 41 40 44 24 9 2 13 0 0 0 0 0 0 0 0 0 0 0 0 0 0 1047 1332 1387 1357 1322 1247 1071 946 755 658 415 200 223 316 341 329 248 255 187
14 2 11 9 15 39 21 41 29 14 0 0 0 0 0 0 0 0 0 0 0 0 0 0 0 1167 1154 1140 1282 1261 1068 932 741 513 175 144 196 233 308 344 271 225 185 166
3 6 9 2 23 9 5 29 83 124 58 23 0 0 0 1 1 0 0 0 0 0 0 0 0 309 1146 1181 1209 1084 935 797 428 157 76 48 130 144 185 214 235 168 178 139
0 1 5 0 7 0 0 19 0 1 8 67 73 13 33 15 4 17 2 0 0 0 0 0 3 221 1308 1226 951 995 827 513 184 91 19 47 44 85 109 124 229 180 523 433
1 1 1 7 3 0 1 1 0 1 0 0 7 2 58 49 36 30 14 0 0 0 0 1 65 494 1253 1169 886 1042 692 349 70 31 13 22 38 62 67 108 140 506 540 470
10 0 0 1 0 1 0 15 7 2 1 6 4 4 6 2 34 79 110 45 20 3 0 1 151 258 1444 1227 1168 1016 578 154 55 17 2 24 28 29 78 230 370 548 473 425
9 0 0 2 2 3 11 2 4 0 3 0 10 8 2 11 12 1 1 5 4 1 0 16 250 451 1602 1234 1181 917 385 54 47 3 5 1 12 74 203 322 502 458 440 295
6 6 10 0 0 2 11 4 0 1 7 10 31 13 28 20 0 0 0 0 0 6 5 211 426 858 1465 1162 1278 811 237 48 37 15 7 7 47 31 9 65 360 387 395 310
13 11 28 10 0 46 36 23 51 23 28 8 19 23 15 2 9 9 4 5 19 11 47 406 689 1470 1286 1157 1258 692 135 33 32 28 10 8 50 183 200 199 256 321 270 262
20 50 39 26 36 15 0 18 51 30 15 8 1 3 12 2 8 2 0 0 18 3 98 164 902 1525 1212 1221 1128 610 80 32 40 11 22 55 136 210 189 311 95 302 302 171
16 20 30 21 27 11 11 15 17 16 1 0 0 1 2 13 12 5 1 8 8 38 228 371 1059 1541 1266 1380 1007 467 3 51 89 13 37 67 243 385 263 16 1 275 166 72
59 29 31 20 26 15 26 18 17 12 1 0 6 6 3 4 5 4 10 1 0 0 292 644 1175 1248 1325 1187 869 240 0 102 117 48 45 94 222 370 407 322 65 0 0 0
CIN
0 0 0 0 0 0 0 0 0 0 0 0 0 0 0 0 0 0 0 0 0 -61 -58 -40 -30 0 0 0 0 -239 -244 -222 -212 -213 -207 -150 -128 -173 -230 -218 -234 -233 -213 -207
0 0 0 0 0 0 0 0 0 0 0 0 0 0 0 0 0 0 0 0 0 0 -69 -19 0 0 0 0 0 -271 -256 -242 -198 -240 -246 -166 -106 -117 -185 -204 -212 -209 -210 -190
0 0 0 0 0 0 0 0 0 0 0 0 0 0 0 0 0 0 0 0 0 0 0 0 0 0 0 0 0 0 -278 -274 -257 -247 -203 -190 -123 -112 -163 -181 -194 -199 -196 -158
-1 -3 -6 0 0 0 0 0 0 0 0 0 0 0 0 0 0 0 0 0 0 0 0 0 0 0 0 0 0 0 -15 -278 -268 -185 -243 -143 -119 -128 -157 -156 -169 -180 -173 -138
-1 -7 -6 -10 -6 -6 -1 0 0 0 0 0 0 0 0 0 0 0 0 0 0 0 0 0 0 0 0 0 0 0 0 -163 -276 -224 -228 -148 -157 -120 -139 -128 -139 -138 -129 -104
-8 -22 -9 -7 -7 -8 -10 -7 -5 -4 0 -2 0 0 0 0 0 0 -1 0 0 0 0 0 0 0 0 0 0 0 0 0 -276 -225 -232 -166 -174 -75 -105 -91 -130 -114 -127 -82
-5 -5 -23 -38 -7 -11 -7 -9 -9 -11 -8 0 0 -7 0 0 0 -2 0 0 0 0 0 0 0 0 0 0 0 0 0 0 -274 -192 -215 -196 -160 -87 -40 -82 -82 -69 -78 -43
-6 -9 -9 -6 -12 -7 -7 -10 -17 -7 -14 -10 -11 -11 -12 0 0 -5 0 0 0 0 0 0 0 0 0 0 0 0 0 -307 -182 -189 -185 -173 -110 -80 -45 -45 -46 -40 -44 -48
-4 -4 -29 -12 -5 -11 -7 -6 -10 -8 -4 -1 0 -25 -15 -16 0 0 0 0 0 0 0 0 -2 -22 -25 0 0 0 -269 -184 -151 -131 -122 -111 -74 -34 -41 -52 -58 -82 -69 -68
-3 -4 -5 -7 -28 -6 -37 -7 -11 -6 -1 -2 -23 -30 -31 -14 -8 -7 0 0 0 0 0 0 -90 -62 -111 0 0 -307 -198 -108 -103 -87 -84 -70 -48 -66 -84 -81 -79 -105 -98 -81
-6 -5 -8 -8 -16 -4 -9 -9 -7 -9 -24 -10 0 -16 -72 -14 0 -11 -10 0 0 0 0 -2 -24 -113 -91 -167 -165 -158 -82 -67 -61 -69 -69 -61 -78 -85 -94 -118 -112 -108 -104 -89
-7 -17 -6 -6 -9 -11 -32 -5 -7 -6 -16 -6 -26 0 0 -23 -13 0 -8 0 0 0 0 0 -30 -143 -50 -54 -43 -37 -42 -39 -51 -46 -56 -89 -119 -135 -132 -127 -140 -127 -106 -80
-2 -4 -3 -6 -19 -37 -52 -33 -16 -37 -6 -28 -2 0 0 -11 -23 -16 -11 -5 -1 0 0 0 -24 -96 -7 -8 -16 -16 -24 -27 -37 -66 -90 -118 -135 -136 -151 -161 -153 -132 -115 -88
-3 -2 -3 -1 -8 -18 0 -25 -14 -6 -5 -31 -3 0 0 0 -23 0 -1 -1 -2 0 0 0 -29 -34 -16 -3 -6 -14 -12 -28 -54 -74 -106 -137 -158 -183 -212 -186 -138 -86 -68 -50
-7 -1 -3 -4 -5 -6 -8 -5 -4 -6 -9 0 0 0 0 0 0 0 0 0 0 0 0 0 0 -11 -18 -16 -3 -8 -19 -43 -65 -100 -138 -194 -248 -229 -180 -134 -86 -91 -56 -74
-2 0 -2 -4 -4 -6 -7 -7 -4 -4 0 0 0 0 0 0 0 0 0 0 0 0 0 0 0 -4 -14 -38 -5 -11 -34 -52 -72 -124 -215 -236 -212 -178 -133 -93 -75 -69 -57 -63
0 0 -2 -2 -5 -7 -7 -9 -11 -10 -6 -11 0 0 0 -7 -9 -2 0 0 0 0 0 0 0 -49 -20 -24 -19 -17 -38 -54 -108 -176 -225 -236 -193 -166 -130 -106 -67 -79 -47 -74
0 0 0 -1 -1 -1 0 -19 0 -25 -70 -9 -6 -8 -7 -8 -10 -6 -5 0 0 0 0 -1 -3 -96 -4 -11 -48 -19 -35 -84 -145 -195 -257 -225 -220 -187 -150 -127 -57 -52 -2 -1
0 0 0 0 -1 0 -1 0 0 0 0 -1 -1 -48 -12 -39 -60 -6 -4 0 0 0 0 0 -117 -40 -4 -21 -40 -14 -54 -109 -190 -244 -233 -256 -205 -183 -166 -125 -84 -1 -1 -1
-6 0 0 -1 0 -1 0 -1 0 0 0 0 0 0 0 -3 -5 -26 -20 -12 -3 -2 0 -72 -105 -142 -2 -18 -20 -24 -66 -148 -204 -214 -243 -229 -195 -203 -150 -44 -2 0 -1 -1
-12 -4 0 0 0 -2 0 -1 0 0 0 0 -1 0 0 -3 -12 -1 -3 -2 -2 -1 0 -173 -80 -125 -3 -24 -30 -28 -87 -212 -175 -198 -260 -2 -218 -161 -69 -13 -1 -1 -1 -1
-5 -2 -1 0 0 -1 -2 -8 0 -1 -1 -2 -1 -1 -1 -2 0 0 0 0 0 -1 -87 -29 -66 -62 -14 -44 -22 -31 -124 -198 -174 -185 -245 -156 -166 -57 -228 -114 -2 -1 -1 -1
-3 -4 -1 -3 -6 -4 -3 -1 -2 -1 -1 0 0 0 -1 -1 -1 -1 -1 -3 -3 -1 -122 -6 -35 -2 -33 -35 -12 -40 -167 -213 -158 -158 -215 -248 -161 -72 -52 -49 -23 -1 -1 -1
-4 -2 -1 -3 -4 -7 0 -6 0 -1 -1 -1 0 -4 -1 -1 -1 -2 -2 -1 -1 -27 -98 -147 -23 -1 -32 -42 -10 -51 -205 -193 -139 -162 -180 -150 -88 -55 -40 -10 -65 -12 -1 -3
-3 -4 -3 -2 -5 -4 -2 -4 -11 -2 -1 0 0 0 0 -1 -1 -1 -2 -2 -2 -164 -82 -118 -21 -2 -25 -26 -18 -84 -111 -152 -107 -169 -149 -115 -46 -21 -33 -102 -17 -10 -16 -10
-2 -3 -2 -1 -3 -3 -2 -26 -4 -3 0 -3 0 -2 0 -1 -1 -1 -2 -1 0 0 -125 -70 -11 -18 -15 -3 -24 -112 0 -107 -92 -118 -135 -76 -38 -25 -7 -7 -117 0 0 0
Wind_Speed
29 33 34 35 36 42 47 52 60 57 47 44 50 52 64 52 47 51 49 45 43 43 40 38 33 32 29 28 29 29 30 27 24 23 23 20 19 15 13 12 7 4 3 4
33 34 33 36 39 43 46 52 58 57 54 48 50 55 61 52 48 46 51 50 44 40 40 37 35 36 36 36 33 32 30 27 24 25 26 24 19 16 13 9 5 3 2 2
35 36 39 39 38 40 44 49 53 57 52 51 57 57 61 58 50 44 46 51 51 54 53 46 43 38 37 37 35 31 28 25 23 23 24 23 20 16 11 6 4 3 2 2
37 34 32 36 41 41 50 45 49 51 53 59 51 65 57 53 55 52 47 46 49 44 48 47 47 45 41 39 35 31 26 24 24 22 20 16 14 11 7 5 3 2 1 2
38 38 38 41 39 36 46 43 49 51 53 58 57 61 58 45 52 48 48 46 44 44 44 50 48 46 41 39 36 30 28 26 25 19 16 12 9 7 5 3 1 2 2 2
37 33 30 35 32 33 37 44 48 48 51 61 60 60 61 51 40 40 36 35 35 36 37 41 45 47 43 38 36 31 27 25 21 17 14 11 8 8 3 2 1 2 3 3
37 32 23 27 31 27 28 38 46 48 52 62 53 60 58 48 50 43 40 42 38 33 33 36 36 35 37 34 32 29 24 22 17 13 11 9 8 5 2 1 1 1 3 2
28 31 29 28 28 29 31 30 37 42 46 48 49 60 56 52 46 23 28 30 19 25 29 28 29 31 31 32 29 24 19 16 11 10 10 7 4 3 2 3 1 2 2 3
30 29 37 36 29 23 30 24 15 42 43 44 41 46 45 38 45 40 31 24 22 22 26 26 28 28 27 26 23 18 14 10 9 9 6 4 4 2 2 1 2 4 5 6
29 41 35 30 31 22 5 13 31 27 39 41 39 43 44 38 30 31 24 18 18 22 24 25 26 26 25 22 16 12 10 8 7 6 4 4 5 3 2 2 2 4 6 7
34 33 37 34 27 29 9 15 17 35 35 38 35 33 33 32 35 28 16 14 17 21 23 24 23 24 22 15 11 9 7 6 6 6 6 6 4 3 2 3 4 5 6 6
32 27 27 25 36 24 27 10 27 18 32 36 38 36 32 34 16 33 14 15 17 19 21 23 18 20 18 14 8 6 5 6 7 7 6 6 5 4 3 3 4 5 6 6
11 3 21 20 22 22 19 28 17 31 32 38 31 29 26 3 7 11 13 15 19 21 22 21 16 17 17 12 8 6 6 6 6 7 7 6 4 3 3 4 5 6 6 6
8 9 15 25 35 23 28 25 28 31 31 34 41 34 32 28 6 14 19 20 24 26 23 20 18 15 19 11 8 7 6 6 8 8 7 5 4 3 4 5 6 6 7 7
5 6 11 14 23 39 37 34 33 35 37 39 42 38 33 34 33 25 24 29 30 28 23 21 20 15 21 20 10 8 6 7 8 8 7 5 4 4 6 6 6 7 8 8
4 5 8 14 15 16 19 30 34 39 40 42 46 44 39 35 37 38 32 33 31 29 26 24 21 16 21 23 16 8 6 7 8 8 8 5 5 6 6 6 7 7 8 9
5 8 12 13 14 15 13 11 22 29 37 37 48 43 39 38 37 36 33 31 32 30 27 25 23 19 19 24 22 9 7 8 9 11 8 5 5 6 6 7 7 7 8 9
7 2 5 5 7 5 8 21 18 31 31 34 38 44 42 40 38 37 37 35 31 28 27 24 23 21 19 20 16 10 8 11 11 9 7 5 6 6 6 7 8 7 8 8
6 10 7 6 6 9 4 17 22 25 28 35 34 36 38 37 35 37 33 34 32 28 25 25 25 22 26 18 15 9 9 11 11 8 6 6 6 6 7 8 8 9 8 8
10 9 8 5 4 6 17 24 18 11 11 19 27 31 33 33 34 20 18 20 25 26 28 27 26 25 19 18 23 8 9 13 12 7 6 6 7 7 8 8 9 10 10 9
3 11 7 1 1 8 18 28 21 17 24 30 27 27 30 33 36 34 30 29 29 30 29 28 27 26 18 20 30 8 12 15 12 8 6 6 8 9 10 10 10 10 10 10
11 11 12 16 9 15 29 28 25 30 32 32 30 30 32 34 35 36 33 32 31 30 29 28 26 29 17 23 28 8 11 14 10 9 7 9 9 11 11 12 12 11 11 11
12 18 9 12 8 6 32 34 26 20 34 32 32 32 32 32 34 33 33 33 32 29 29 28 27 27 20 26 24 9 12 12 11 9 9 10 10 11 13 14 12 12 12 13
25 25 13 13 20 26 38 32 35 34 35 34 31 32 31 34 33 34 33 32 31 30 30 28 28 26 25 33 16 9 12 13 13 10 11 11 10 10 13 13 13 12 13 13
32 26 16 6 22 36 25 36 38 34 32 32 30 32 32 32 33 32 32 33 31 30 31 28 31 25 27 31 12 10 13 14 13 11 11 11 11 13 12 11 12 13 14 12
24 21 23 16 25 19 28 34 34 34 28 27 28 25 25 29 32 32 32 31 31 31 31 30 31 22 26 17 11 9 14 12 11 9 9 12 11 13 12 11 12 15 16 15
Wind_Direction
306 293 287 286 283 280 278 274 270 269 273 269 266 263 258 261 261 260 259 259 257 260 262 261 264 267 267 271 276 282 289 294 296 297 300 301 301 300 302 298 287 259 249 232
304 294 294 289 285 282 280 276 272 273 269 271 270 264 261 262 260 259 258 258 259 260 261 263 263 266 268 272 276 281 285 290 293 296 295 300 299 297 300 292 281 260 249 254
303 301 300 291 286 282 279 277 276 273 273 266 266 266 261 260 262 260 260 259 260 260 260 262 265 267 269 272 275 277 282 287 292 295 298 301 302 300 293 276 277 268 235 285
304 306 304 297 286 282 278 280 278 275 270 263 259 262 261 260 259 259 260 261 260 262 260 262 266 268 270 272 275 275 276 282 289 292 296 296 292 290 277 268 282 291 262 298
307 303 299 296 289 289 282 283 277 272 269 264 260 259 259 261 258 258 259 261 262 265 266 261 263 266 269 272 272 273 276 280 282 285 288 285 278 285 286 266 319 333 322 325
311 313 304 302 297 293 294 285 282 271 266 259 255 254 254 254 262 259 262 261 262 265 268 269 269 267 265 268 272 273 274 276 276 277 275 266 270 284 269 200 335 356 346 335
318 312 319 320 302 298 296 286 279 269 262 258 255 254 252 255 255 263 272 263 262 267 269 272 271 269 265 265 269 273 272 273 268 266 261 254 264 269 237 224 88 34 3 7
323 310 308 318 310 301 301 288 278 274 268 265 257 253 255 251 254 261 273 271 257 266 272 274 276 274 271 266 268 270 270 264 255 252 253 246 239 216 217 176 33 4 24 25
320 310 294 291 301 315 305 290 233 275 272 272 268 264 252 255 242 255 257 269 265 270 273 278 281 281 279 268 267 259 260 247 247 245 235 216 181 179 167 6 356 17 16 17
318 293 294 299 302 310 294 218 286 282 270 265 271 258 252 240 243 244 245 256 265 274 274 280 281 279 273 264 261 250 247 237 231 223 195 162 142 128 79 28 38 32 10 12
292 268 277 281 289 284 330 212 208 259 261 262 272 260 237 243 234 238 228 249 272 276 279 283 284 273 265 262 255 244 226 212 198 172 154 140 129 108 85 76 36 24 14 20
276 266 246 239 263 300 296 195 239 291 265 252 256 262 253 233 245 220 242 252 274 280 285 285 289 274 259 251 243 224 193 181 159 150 137 130 121 105 80 44 34 22 27 26
9 51 251 237 226 307 312 292 307 242 253 228 252 238 240 158 196 190 232 258 267 277 283 286 293 272 251 240 228 202 194 168 153 136 129 127 117 87 52 36 21 29 28 45
219 224 221 234 255 305 283 284 274 248 244 230 227 230 235 239 152 233 249 265 264 267 271 283 285 275 244 234 220 210 185 156 136 130 128 124 104 68 37 32 33 39 53 55
103 221 228 231 240 266 268 266 262 249 250 247 241 239 244 249 263 267 267 263 260 261 263 270 269 268 235 234 218 207 184 145 134 127 123 112 87 62 54 34 42 46 54 43
105 218 226 241 232 231 231 243 279 254 249 249 247 245 254 251 246 258 263 257 255 256 256 263 261 259 233 230 228 202 174 146 130 120 114 103 77 65 49 45 40 54 70 64
193 225 234 233 230 239 213 212 241 267 256 266 251 251 260 258 254 253 254 254 252 251 252 256 253 252 233 226 229 211 160 133 123 117 110 89 70 60 53 57 64 68 58 75
67 93 124 210 203 167 174 333 227 264 247 271 265 261 259 257 256 253 250 248 249 251 247 251 251 250 228 224 220 217 142 125 122 114 102 81 77 57 57 64 55 69 66 72
91 62 79 82 101 212 185 10 345 324 306 270 268 263 265 268 260 249 245 242 245 245 243 243 242 244 224 217 212 212 137 127 122 112 91 79 70 58 69 55 54 66 70 65
52 53 61 79 109 111 20 0 13 41 36 333 286 269 256 254 236 239 254 248 242 245 247 243 242 244 220 214 216 162 139 129 121 104 81 74 70 66 60 57 55 71 83 84
46 41 57 95 134 41 10 352 11 6 312 294 284 271 257 247 242 254 251 248 246 244 246 243 244 237 222 214 214 170 135 130 119 100 76 67 72 51 58 58 66 74 75 80
43 43 37 24 45 23 337 346 348 302 292 287 273 271 257 250 252 247 249 246 244 244 241 239 237 228 217 213 217 164 140 128 116 104 86 86 71 73 63 71 73 66 64 77
46 17 35 37 35 341 333 323 342 348 294 286 273 271 264 256 247 241 240 239 240 241 239 238 233 221 216 214 220 172 137 129 120 109 95 91 79 70 74 73 70 64 73 91
335 343 12 9 9 342 319 326 326 325 298 285 271 271 261 250 239 236 236 235 236 234 232 236 226 217 212 210 216 162 140 130 123 112 108 99 81 69 77 67 63 61 71 91
306 331 4 345 360 344 290 310 312 307 293 287 272 269 253 241 234 234 233 232 233 235 231 230 215 213 210 214 199 156 140 133 126 120 113 104 92 96 73 20 344 51 35 62
326 338 347 3 358 -0 292 300 309 299 283 272 265 264 248 238 233 230 229 231 234 231 228 225 216 209 211 209 175 162 142 137 129 125 117 113 96 101 79 60 22 12 38 34